| time (UTC) | temp F | wind direction | speed knots | gust knots | rain 1hr in | rain 24hr in | rain mn in | humidity % | barometer mb |
| 20260903150018 | 69 | 228 | 1.7 | 4.3 | 0.00 | 0.00 | 0.00 | 19 | 1017.9 |
| 20260903145518 | 69 | 230 | 0.9 | 2.6 | 0.00 | 0.00 | 0.00 | 19 | 1017.8 |
| 20260903145018 | 69 | 232 | 0.9 | 6.1 | 0.00 | 0.00 | 0.00 | 19 | 1017.9 |
| 20260903144518 | 69 | 219 | 1.7 | 4.3 | 0.00 | 0.00 | 0.00 | 19 | 1017.8 |
| 20260903144018 | 68 | 219 | 1.7 | 5.2 | 0.00 | 0.00 | 0.00 | 19 | 1017.8 |
| 20260903143518 | 68 | 220 | 1.7 | 6.1 | 0.00 | 0.00 | 0.00 | 18 | 1017.8 |
| 20260903143018 | 68 | 228 | 1.7 | 5.2 | 0.00 | 0.00 | 0.00 | 19 | 1017.8 |
| 20260903142518 | 68 | 236 | 1.7 | 5.2 | 0.00 | 0.00 | 0.00 | 19 | 1017.8 |
| 20260903142018 | 67 | 202 | 1.7 | 6.1 | 0.00 | 0.00 | 0.00 | 19 | 1017.7 |
| 20260903141518 | 67 | 197 | 1.7 | 8.7 | 0.00 | 0.00 | 0.00 | 19 | 1017.7 |
| 20260903141018 | 67 | 232 | 1.7 | 5.2 | 0.00 | 0.00 | 0.00 | 19 | 1017.7 |
| 20260903140518 | 67 | 227 | 1.7 | 5.2 | 0.00 | 0.00 | 0.00 | 19 | 1017.7 |
| 20260903140018 | 67 | 240 | 1.7 | 6.1 | 0.00 | 0.00 | 0.00 | 19 | 1017.8 |
| 20260903135518 | 66 | 230 | 1.7 | 4.3 | 0.00 | 0.00 | 0.00 | 19 | 1017.8 |
| 20260903135018 | 66 | 236 | 1.7 | 6.1 | 0.00 | 0.00 | 0.00 | 19 | 1017.8 |
| 20260903134518 | 66 | 245 | 0.9 | 5.2 | 0.00 | 0.00 | 0.00 | 19 | 1017.7 |
| 20260903134018 | 65 | 250 | 0.9 | 4.3 | 0.00 | 0.00 | 0.00 | 19 | 1017.7 |
| 20260903133518 | 65 | 227 | 0.9 | 4.3 | 0.00 | 0.00 | 0.00 | 19 | 1017.6 |
| 20260903133018 | 64 | 226 | 0.9 | 3.5 | 0.00 | 0.00 | 0.00 | 19 | 1017.6 |
| 20260903132518 | 64 | 229 | 0.9 | 4.3 | 0.00 | 0.00 | 0.00 | 19 | 1017.5 |
| 20260903132018 | 64 | 225 | 0.9 | 7.0 | 0.00 | 0.00 | 0.00 | 20 | 1017.4 |
| 20260903131518 | 64 | 219 | 0.9 | 2.6 | 0.00 | 0.00 | 0.00 | 20 | 1017.3 |
| 20260903131018 | 64 | 219 | 0.9 | 3.5 | 0.00 | 0.00 | 0.00 | 20 | 1017.2 |
| 20260903130518 | 64 | 209 | 1.7 | 3.5 | 0.00 | 0.00 | 0.00 | 20 | 1017.1 |
| 20260903130018 | 64 | 212 | 1.7 | 4.3 | 0.00 | 0.00 | 0.00 | 20 | 1017.0 |
| 20260903125518 | 64 | 214 | 1.7 | 3.5 | 0.00 | 0.00 | 0.00 | 19 | 1017.0 |
| 20260903125018 | 64 | 215 | 1.7 | 4.3 | 0.00 | 0.00 | 0.00 | 19 | 1016.9 |
| 20260903124518 | 64 | 225 | 1.7 | 5.2 | 0.00 | 0.00 | 0.00 | 19 | 1016.9 |
| 20260903124018 | 64 | 220 | 1.7 | 3.5 | 0.00 | 0.00 | 0.00 | 20 | 1016.9 |
| 20260903123518 | 64 | 198 | 1.7 | 6.1 | 0.00 | 0.00 | 0.00 | 20 | 1016.9 |
| 20260903123018 | 64 | 220 | 1.7 | 4.3 | 0.00 | 0.00 | 0.00 | 21 | 1016.9 |
| 20260903122518 | 64 | 187 | 1.7 | 5.2 | 0.00 | 0.00 | 0.00 | 22 | 1016.9 |
| 20260903122018 | 64 | 205 | 1.7 | 4.3 | 0.00 | 0.00 | 0.00 | 21 | 1016.8 |
| 20260903121518 | 64 | 213 | 1.7 | 7.0 | 0.00 | 0.00 | 0.00 | 22 | 1016.8 |
| 20260903121018 | 64 | 205 | 0.9 | 5.2 | 0.00 | 0.00 | 0.00 | 20 | 1016.7 |
| 20260903120518 | 65 | 190 | 0.9 | 6.1 | 0.00 | 0.00 | 0.00 | 22 | 1016.7 |
| 20260903120018 | 65 | 203 | 0.9 | 4.3 | 0.00 | 0.00 | 0.00 | 19 | 1016.7 |
| 20260903115518 | 65 | 207 | 0.9 | 2.6 | 0.00 | 0.00 | 0.00 | 19 | 1016.7 |
| 20260903115018 | 65 | 207 | 0.9 | 4.3 | 0.00 | 0.00 | 0.00 | 18 | 1016.6 |
| 20260903114518 | 65 | 198 | 0.9 | 0.9 | 0.00 | 0.00 | 0.00 | 19 | 1016.6 |
| 20260903114018 | 65 | 207 | 0.9 | 6.1 | 0.00 | 0.00 | 0.00 | 18 | 1016.5 |
| 20260903113518 | 65 | 208 | 0.9 | 3.5 | 0.00 | 0.00 | 0.00 | 19 | 1016.6 |
| 20260903113018 | 65 | 211 | 0.9 | 4.3 | 0.00 | 0.00 | 0.00 | 19 | 1016.5 |
| 20260903112518 | 65 | 213 | 0.9 | 6.1 | 0.00 | 0.00 | 0.00 | 18 | 1016.6 |
| 20260903112018 | 66 | 200 | 0.9 | 3.5 | 0.00 | 0.00 | 0.00 | 20 | 1016.7 |
| 20260903111518 | 66 | 203 | 0.9 | 3.5 | 0.00 | 0.00 | 0.00 | 18 | 1016.6 |
| 20260903111018 | 66 | 215 | 0.9 | 3.5 | 0.00 | 0.00 | 0.00 | 19 | 1016.6 |
| 20260903110518 | 66 | 211 | 0.9 | 5.2 | 0.00 | 0.00 | 0.00 | 17 | 1016.6 |
| 20260903110018 | 66 | 211 | 0.9 | 2.6 | 0.00 | 0.00 | 0.00 | 18 | 1016.6 |
| 20260903105518 | 66 | 213 | 0.9 | 3.5 | 0.00 | 0.00 | 0.00 | 18 | 1016.5 |
| 20260903105018 | 66 | 213 | 0.9 | 2.6 | 0.00 | 0.00 | 0.00 | 19 | 1016.5 |
| 20260903104518 | 66 | 214 | 0.9 | 4.3 | 0.00 | 0.00 | 0.00 | 19 | 1016.4 |
| 20260903104018 | 66 | 207 | 0.9 | 4.3 | 0.00 | 0.00 | 0.00 | 20 | 1016.4 |
| 20260903103518 | 66 | 202 | 0.9 | 3.5 | 0.00 | 0.00 | 0.00 | 18 | 1016.3 |
| 20260903103018 | 66 | 227 | 1.7 | 2.6 | 0.00 | 0.00 | 0.00 | 18 | 1016.4 |
| 20260903102518 | 66 | 213 | 0.9 | 3.5 | 0.00 | 0.00 | 0.00 | 18 | 1016.3 |
| 20260903102018 | 66 | 189 | 0.9 | 3.5 | 0.00 | 0.00 | 0.00 | 19 | 1016.3 |
| 20260903101518 | 65 | 199 | 0.9 | 6.1 | 0.00 | 0.00 | 0.00 | 19 | 1016.3 |
| 20260903101018 | 65 | 213 | 0.9 | 6.1 | 0.00 | 0.00 | 0.00 | 20 | 1016.4 |
| 20260903100518 | 64 | 215 | 0.9 | 4.3 | 0.00 | 0.00 | 0.00 | 20 | 1016.3 |
| 20260903100018 | 64 | 232 | 0.9 | 8.7 | 0.00 | 0.00 | 0.00 | 22 | 1016.2 |
| 20260903095518 | 64 | 268 | 0.9 | 4.3 | 0.00 | 0.00 | 0.00 | 26 | 1016.2 |
| 20260903095018 | 64 | 186 | 0.9 | 7.0 | 0.00 | 0.00 | 0.00 | 25 | 1016.2 |
| 20260903094518 | 65 | 146 | 0.9 | 4.3 | 0.00 | 0.00 | 0.00 | 27 | 1016.1 |
| 20260903094018 | 65 | 212 | 0.9 | 5.2 | 0.00 | 0.00 | 0.00 | 23 | 1016.1 |
| 20260903093518 | 66 | 203 | 0.9 | 4.3 | 0.00 | 0.00 | 0.00 | 19 | 1016.0 |
| 20260903093018 | 66 | 222 | 0.9 | 4.3 | 0.00 | 0.00 | 0.00 | 19 | 1016.1 |
| 20260903092518 | 66 | 257 | 0.0 | 2.6 | 0.00 | 0.00 | 0.00 | 18 | 1016.1 |
| 20260903092018 | 65 | 259 | 0.0 | 3.5 | 0.00 | 0.00 | 0.00 | 19 | 1016.0 |
| 20260903091518 | 64 | 261 | 0.0 | 3.5 | 0.00 | 0.00 | 0.00 | 21 | 1016.0 |
| 20260903091019 | 63 | 262 | 0.0 | 7.0 | 0.00 | 0.00 | 0.00 | 21 | 1016.0 |
| 20260903090518 | 63 | 262 | 0.0 | 4.3 | 0.00 | 0.00 | 0.00 | 24 | 1016.1 |
| 20260903090018 | 63 | 256 | 0.0 | 0.0 | 0.00 | 0.00 | 0.00 | 30 | 1016.1 |
| 20260903085518 | 63 | 256 | 0.0 | 0.0 | 0.00 | 0.00 | 0.00 | 28 | 1016.1 |
| 20260903085018 | 63 | 256 | 0.0 | 0.0 | 0.00 | 0.00 | 0.00 | 31 | 1016.1 |
| 20260903084518 | 64 | 256 | 0.0 | 0.0 | 0.00 | 0.00 | 0.00 | 30 | 1016.0 |
| 20260903084018 | 65 | 256 | 0.0 | 0.0 | 0.00 | 0.00 | 0.00 | 28 | 1016.1 |
| 20260903083518 | 65 | 256 | 0.0 | 0.0 | 0.00 | 0.00 | 0.00 | 29 | 1016.1 |
| 20260903083018 | 66 | 256 | 0.0 | 0.0 | 0.00 | 0.00 | 0.00 | 28 | 1016.1 |
| 20260903082518 | 67 | 256 | 0.0 | 0.0 | 0.00 | 0.00 | 0.00 | 24 | 1016.1 |
| 20260903082018 | 67 | 256 | 0.0 | 0.0 | 0.00 | 0.00 | 0.00 | 18 | 1016.1 |
| 20260903081518 | 67 | 256 | 0.0 | 0.9 | 0.00 | 0.00 | 0.00 | 19 | 1016.1 |
| 20260903081018 | 67 | 256 | 0.0 | 0.0 | 0.00 | 0.00 | 0.00 | 18 | 1016.0 |
| 20260903080518 | 67 | 256 | 0.0 | 0.0 | 0.00 | 0.00 | 0.00 | 18 | 1016.1 |
| 20260903080018 | 67 | 256 | 0.0 | 0.0 | 0.00 | 0.00 | 0.00 | 19 | 1016.0 |
| 20260903075518 | 67 | 256 | 0.0 | 0.0 | 0.00 | 0.00 | 0.00 | 18 | 1016.0 |
| 20260903075018 | 67 | 256 | 0.0 | 0.9 | 0.00 | 0.00 | 0.00 | 19 | 1015.9 |
| 20260903074518 | 67 | 256 | 0.0 | 2.6 | 0.00 | 0.00 | 0.00 | 19 | 1015.9 |
| 20260903074018 | 67 | 256 | 0.0 | 0.0 | 0.00 | 0.00 | 0.00 | 19 | 1016.0 |
| 20260903073518 | 66 | 256 | 0.0 | 0.9 | 0.00 | 0.00 | 0.00 | 19 | 1015.9 |
| 20260903073018 | 66 | 256 | 0.0 | 0.0 | 0.00 | 0.00 | 0.00 | 19 | 1015.8 |
| 20260903072519 | 66 | 256 | 0.0 | 2.6 | 0.00 | 0.00 | 0.00 | 20 | 1015.8 |
| 20260903072019 | 66 | 256 | 0.0 | 0.0 | 0.00 | 0.00 | 0.00 | 21 | 1015.9 |
| 20260903071519 | 66 | 256 | 0.0 | 0.0 | 0.00 | 0.00 | 0.00 | 21 | 1015.7 |
| 20260903071019 | 66 | 256 | 0.0 | 0.0 | 0.00 | 0.00 | 0.00 | 22 | 1015.8 |
| 20260903070519 | 66 | 256 | 0.0 | 0.0 | 0.00 | 0.00 | 0.00 | 23 | 1015.8 |
| 20260903070019 | 65 | 256 | 0.0 | 0.0 | 0.00 | 0.00 | 0.00 | 24 | 1015.7 |
| 20260903065519 | 65 | 256 | 0.0 | 0.0 | 0.00 | 0.00 | 0.00 | 25 | 1015.6 |
| 20260903065019 | 65 | 256 | 0.0 | 0.0 | 0.00 | 0.00 | 0.00 | 24 | 1015.6 |
| 20260903064519 | 65 | 256 | 0.0 | 0.0 | 0.00 | 0.00 | 0.00 | 26 | 1015.5 |
| 20260903064019 | 65 | 256 | 0.0 | 0.0 | 0.00 | 0.00 | 0.00 | 29 | 1015.5 |
| 20260903063519 | 65 | 256 | 0.0 | 0.0 | 0.00 | 0.00 | 0.00 | 26 | 1015.5 |
| 20260903063019 | 66 | 256 | 0.0 | 0.0 | 0.00 | 0.00 | 0.00 | 27 | 1015.4 |
| 20260903062519 | 66 | 256 | 0.0 | 0.0 | 0.00 | 0.00 | 0.00 | 28 | 1015.5 |
| 20260903062019 | 66 | 256 | 0.0 | 0.0 | 0.00 | 0.00 | 0.00 | 27 | 1015.4 |
| 20260903061519 | 66 | 256 | 0.0 | 0.0 | 0.00 | 0.00 | 0.00 | 27 | 1015.4 |
| 20260903061019 | 66 | 256 | 0.0 | 0.0 | 0.00 | 0.00 | 0.00 | 27 | 1015.4 |
| 20260903060519 | 66 | 256 | 0.0 | 0.0 | 0.00 | 0.00 | 0.00 | 27 | 1015.3 |
| 20260903060019 | 66 | 256 | 0.0 | 0.0 | 0.00 | 0.00 | 0.00 | 27 | 1015.3 |
| 20260903055519 | 66 | 256 | 0.0 | 0.0 | 0.00 | 0.00 | 0.00 | 26 | 1015.1 |
| 20260903055019 | 66 | 256 | 0.0 | 0.0 | 0.00 | 0.00 | 0.00 | 27 | 1015.2 |
| 20260903054519 | 67 | 256 | 0.0 | 0.0 | 0.00 | 0.00 | 0.00 | 28 | 1015.2 |
| 20260903054019 | 67 | 256 | 0.0 | 0.0 | 0.00 | 0.00 | 0.00 | 29 | 1015.3 |
| 20260903053519 | 68 | 256 | 0.0 | 0.0 | 0.00 | 0.00 | 0.00 | 32 | 1015.4 |
| 20260903053019 | 68 | 256 | 0.0 | 0.0 | 0.00 | 0.00 | 0.00 | 25 | 1015.3 |
| 20260903052519 | 69 | 256 | 0.0 | 0.0 | 0.00 | 0.00 | 0.00 | 25 | 1015.2 |
| 20260903052019 | 69 | 256 | 0.0 | 0.0 | 0.00 | 0.00 | 0.00 | 24 | 1015.2 |
| 20260903051519 | 70 | 256 | 0.0 | 0.0 | 0.00 | 0.00 | 0.00 | 22 | 1015.2 |
| 20260903051019 | 70 | 256 | 0.0 | 0.0 | 0.00 | 0.00 | 0.00 | 22 | 1015.2 |
| 20260903050519 | 70 | 256 | 0.0 | 0.0 | 0.00 | 0.00 | 0.00 | 23 | 1015.3 |
| 20260903050019 | 71 | 256 | 0.0 | 0.0 | 0.00 | 0.00 | 0.00 | 23 | 1015.3 |
| 20260903045519 | 72 | 256 | 0.0 | 0.0 | 0.00 | 0.00 | 0.00 | 21 | 1015.3 |
| 20260903045019 | 72 | 256 | 0.0 | 0.0 | 0.00 | 0.00 | 0.00 | 19 | 1015.4 |
| 20260903044519 | 73 | 256 | 0.0 | 0.0 | 0.00 | 0.00 | 0.00 | 18 | 1015.5 |
| 20260903044019 | 73 | 256 | 0.0 | 0.0 | 0.00 | 0.00 | 0.00 | 17 | 1015.5 |
| 20260903043519 | 74 | 256 | 0.0 | 0.0 | 0.00 | 0.00 | 0.00 | 16 | 1015.6 |
| 20260903043019 | 74 | 256 | 0.0 | 1.7 | 0.00 | 0.00 | 0.00 | 15 | 1015.5 |
| 20260903042519 | 74 | 256 | 0.0 | 2.6 | 0.00 | 0.00 | 0.00 | 15 | 1015.4 |
| 20260903042019 | 74 | 256 | 0.0 | 2.6 | 0.00 | 0.00 | 0.00 | 15 | 1015.4 |
| 20260903041519 | 74 | 256 | 0.0 | 0.0 | 0.00 | 0.00 | 0.00 | 15 | 1015.4 |
| 20260903041019 | 74 | 256 | 0.9 | 5.2 | 0.00 | 0.00 | 0.00 | 15 | 1015.3 |
| 20260903040519 | 74 | 257 | 0.0 | 5.2 | 0.00 | 0.00 | 0.00 | 15 | 1015.2 |
| 20260903040019 | 74 | 257 | 0.0 | 1.7 | 0.00 | 0.00 | 0.00 | 15 | 1015.2 |
| 20260903035519 | 74 | 257 | 0.0 | 1.7 | 0.00 | 0.00 | 0.00 | 15 | 1014.9 |
| 20260903035019 | 74 | 257 | 0.0 | 2.6 | 0.00 | 0.00 | 0.00 | 15 | 1014.9 |
| 20260903034519 | 74 | 257 | 0.0 | 2.6 | 0.00 | 0.00 | 0.00 | 15 | 1014.9 |
| 20260903034019 | 74 | 257 | 0.0 | 3.5 | 0.00 | 0.00 | 0.00 | 15 | 1014.9 |
| 20260903033519 | 75 | 257 | 0.0 | 4.3 | 0.00 | 0.00 | 0.00 | 14 | 1014.8 |
| 20260903033019 | 75 | 257 | 0.0 | 4.3 | 0.00 | 0.00 | 0.00 | 15 | 1014.9 |
| 20260903032519 | 75 | 257 | 0.0 | 2.6 | 0.00 | 0.00 | 0.00 | 14 | 1014.9 |
| 20260903032019 | 75 | 258 | 0.0 | 0.0 | 0.00 | 0.00 | 0.00 | 14 | 1014.8 |
| 20260903031519 | 75 | 258 | 0.0 | 0.9 | 0.00 | 0.00 | 0.00 | 14 | 1014.9 |
| 20260903031019 | 75 | 258 | 0.9 | 2.6 | 0.00 | 0.00 | 0.00 | 14 | 1014.8 |
| 20260903030519 | 75 | 258 | 0.9 | 4.3 | 0.00 | 0.00 | 0.00 | 14 | 1014.8 |
| 20260903030019 | 75 | 258 | 0.9 | 3.5 | 0.00 | 0.00 | 0.00 | 14 | 1014.9 |
| 20260903025519 | 75 | 258 | 0.0 | 3.5 | 0.00 | 0.00 | 0.00 | 14 | 1014.8 |
| 20260903025019 | 75 | 258 | 0.0 | 1.7 | 0.00 | 0.00 | 0.00 | 14 | 1014.9 |
| 20260903024519 | 75 | 258 | 0.0 | 3.5 | 0.00 | 0.00 | 0.00 | 14 | 1014.7 |
| 20260903024019 | 75 | 258 | 0.0 | 1.7 | 0.00 | 0.00 | 0.00 | 14 | 1014.6 |
| 20260903023519 | 76 | 258 | 0.0 | 0.0 | 0.00 | 0.00 | 0.00 | 14 | 1014.6 |
| 20260903023019 | 76 | 258 | 0.0 | 1.7 | 0.00 | 0.00 | 0.00 | 14 | 1014.5 |
| 20260903022519 | 76 | 258 | 0.0 | 0.0 | 0.00 | 0.00 | 0.00 | 13 | 1014.5 |
| 20260903022019 | 76 | 258 | 0.0 | 1.7 | 0.00 | 0.00 | 0.00 | 13 | 1014.5 |
| 20260903021519 | 76 | 258 | 0.0 | 0.0 | 0.00 | 0.00 | 0.00 | 13 | 1014.4 |
| 20260903021019 | 76 | 258 | 0.0 | 0.0 | 0.00 | 0.00 | 0.00 | 13 | 1014.4 |
| 20260903020519 | 77 | 258 | 0.9 | 3.5 | 0.00 | 0.00 | 0.00 | 13 | 1014.4 |
| 20260903020019 | 77 | 259 | 0.9 | 4.3 | 0.00 | 0.00 | 0.00 | 13 | 1014.5 |
| 20260903015519 | 77 | 258 | 0.9 | 4.3 | 0.00 | 0.00 | 0.00 | 12 | 1014.5 |
| 20260903015019 | 77 | 259 | 0.0 | 0.0 | 0.00 | 0.00 | 0.00 | 13 | 1014.6 |
| 20260903014519 | 77 | 259 | 0.0 | 0.9 | 0.00 | 0.00 | 0.00 | 13 | 1014.6 |
| 20260903014019 | 77 | 259 | 0.0 | 1.7 | 0.00 | 0.00 | 0.00 | 13 | 1014.6 |
| 20260903013519 | 77 | 259 | 0.9 | 3.5 | 0.00 | 0.00 | 0.00 | 13 | 1014.6 |
| 20260903013019 | 77 | 259 | 0.9 | 3.5 | 0.00 | 0.00 | 0.00 | 14 | 1014.6 |
| 20260903012519 | 77 | 259 | 0.0 | 1.7 | 0.00 | 0.00 | 0.00 | 15 | 1014.7 |
| 20260903012019 | 77 | 259 | 0.0 | 3.5 | 0.00 | 0.00 | 0.00 | 15 | 1014.7 |
| 20260903011519 | 77 | 259 | 0.0 | 1.7 | 0.00 | 0.00 | 0.00 | 14 | 1014.7 |
| 20260903011019 | 78 | 259 | 0.0 | 0.0 | 0.00 | 0.00 | 0.00 | 15 | 1014.8 |
| 20260903010519 | 78 | 259 | 0.0 | 0.0 | 0.00 | 0.00 | 0.00 | 14 | 1014.9 |
| 20260903010019 | 78 | 259 | 0.9 | 4.3 | 0.00 | 0.00 | 0.00 | 14 | 1015.0 |
| 20260903005519 | 78 | 259 | 0.9 | 5.2 | 0.00 | 0.00 | 0.00 | 13 | 1014.9 |
| 20260903005019 | 78 | 258 | 0.9 | 4.3 | 0.00 | 0.00 | 0.00 | 14 | 1014.9 |
| 20260903004519 | 79 | 262 | 0.9 | 5.2 | 0.00 | 0.00 | 0.00 | 14 | 1014.9 |
| 20260903004019 | 79 | 264 | 0.9 | 4.3 | 0.00 | 0.00 | 0.00 | 15 | 1015.1 |
| 20260903003519 | 79 | 264 | 0.9 | 4.3 | 0.00 | 0.00 | 0.00 | 15 | 1015.2 |
| 20260903003019 | 79 | 264 | 0.0 | 4.3 | 0.00 | 0.00 | 0.00 | 14 | 1014.9 |
| 20260903002519 | 79 | 264 | 0.0 | 3.5 | 0.00 | 0.00 | 0.00 | 15 | 1015.1 |
| 20260903002019 | 79 | 264 | 0.9 | 4.3 | 0.00 | 0.00 | 0.00 | 15 | 1015.2 |
| 20260903001519 | 79 | 264 | 0.9 | 2.6 | 0.00 | 0.00 | 0.00 | 14 | 1015.2 |
| 20260903001019 | 79 | 265 | 1.7 | 7.0 | 0.00 | 0.00 | 0.00 | 14 | 1015.2 |
| 20260903000519 | 79 | 261 | 1.7 | 6.1 | 0.00 | 0.00 | 0.00 | 15 | 1015.3 |
| 20260903000019 | 79 | 261 | 1.7 | 6.1 | 0.00 | 0.00 | 0.00 | 14 | 1015.3 |
| 20260902235519 | 79 | 263 | 0.9 | 8.7 | 0.00 | 0.00 | 0.00 | 14 | 1015.3 |
| 20260902235019 | 79 | 296 | 0.9 | 3.5 | 0.00 | 0.00 | 0.00 | 14 | 1015.1 |
| 20260902234519 | 80 | 296 | 1.7 | 7.8 | 0.00 | 0.00 | 0.00 | 15 | 1015.1 |
| 20260902234019 | 80 | 251 | 1.7 | 6.1 | 0.00 | 0.00 | 0.00 | 15 | 1015.2 |
| 20260902233519 | 80 | 247 | 0.9 | 4.3 | 0.00 | 0.00 | 0.00 | 15 | 1015.1 |
| 20260902233019 | 80 | 238 | 1.7 | 6.1 | 0.00 | 0.00 | 0.00 | 15 | 1015.2 |
| 20260902232519 | 80 | 246 | 2.6 | 7.8 | 0.00 | 0.00 | 0.00 | 15 | 1015.3 |
| 20260902232019 | 81 | 264 | 2.6 | 8.7 | 0.00 | 0.00 | 0.00 | 15 | 1015.3 |
| 20260902231519 | 81 | 270 | 1.7 | 9.6 | 0.00 | 0.00 | 0.00 | 15 | 1015.4 |
| 20260902231019 | 81 | 265 | 0.9 | 4.3 | 0.00 | 0.00 | 0.00 | 14 | 1015.5 |
| 20260902230519 | 81 | 269 | 0.9 | 7.0 | 0.00 | 0.00 | 0.00 | 14 | 1015.5 |
| 20260902230019 | 81 | 272 | 1.7 | 3.5 | 0.00 | 0.00 | 0.00 | 16 | 1015.6 |
| 20260902225519 | 81 | 272 | 1.7 | 6.1 | 0.00 | 0.00 | 0.00 | 16 | 1015.6 |
| 20260902225019 | 81 | 254 | 1.7 | 6.1 | 0.00 | 0.00 | 0.00 | 16 | 1015.7 |
| 20260902224519 | 81 | 245 | 1.7 | 4.3 | 0.00 | 0.00 | 0.00 | 16 | 1015.6 |
| 20260902224019 | 81 | 254 | 1.7 | 2.6 | 0.00 | 0.00 | 0.00 | 16 | 1015.5 |
| 20260902223519 | 81 | 254 | 2.6 | 6.1 | 0.00 | 0.00 | 0.00 | 16 | 1015.4 |
| 20260902223019 | 81 | 262 | 2.6 | 7.8 | 0.00 | 0.00 | 0.00 | 16 | 1015.5 |
| 20260902222519 | 82 | 286 | 1.7 | 6.1 | 0.00 | 0.00 | 0.00 | 16 | 1015.5 |
| 20260902222019 | 82 | 283 | 1.7 | 6.1 | 0.00 | 0.00 | 0.00 | 16 | 1015.6 |
| 20260902221519 | 82 | 286 | 1.7 | 5.2 | 0.00 | 0.00 | 0.00 | 16 | 1015.6 |
| 20260902221019 | 81 | 286 | 1.7 | 5.2 | 0.00 | 0.00 | 0.00 | 18 | 1015.5 |
| 20260902220519 | 80 | 287 | 1.7 | 10.4 | 0.00 | 0.00 | 0.00 | 17 | 1015.8 |
| 20260902220019 | 80 | 282 | 1.7 | 6.1 | 0.00 | 0.00 | 0.00 | 18 | 1015.9 |
| 20260902215519 | 80 | 279 | 2.6 | 4.3 | 0.00 | 0.00 | 0.00 | 18 | 1015.8 |
| 20260902215019 | 80 | 279 | 3.5 | 12.2 | 0.00 | 0.00 | 0.00 | 18 | 1015.9 |
| 20260902214519 | 80 | 277 | 2.6 | 8.7 | 0.00 | 0.00 | 0.00 | 17 | 1016.0 |
| 20260902214019 | 81 | 243 | 2.6 | 7.0 | 0.00 | 0.00 | 0.00 | 19 | 1015.9 |
| 20260902213519 | 81 | 259 | 3.5 | 12.2 | 0.00 | 0.00 | 0.00 | 18 | 1016.0 |
| 20260902213019 | 81 | 240 | 2.6 | 9.6 | 0.00 | 0.00 | 0.00 | 20 | 1016.0 |
| 20260902212519 | 82 | 274 | 2.6 | 7.0 | 0.00 | 0.00 | 0.00 | 19 | 1016.1 |
| 20260902212019 | 82 | 285 | 2.6 | 9.6 | 0.00 | 0.00 | 0.00 | 20 | 1015.9 |
| 20260902211520 | 81 | 229 | 1.7 | 7.0 | 0.00 | 0.00 | 0.00 | 18 | 1016.0 |
| 20260902211019 | 81 | 273 | 1.7 | 5.2 | 0.00 | 0.00 | 0.00 | 19 | 1016.0 |
| 20260902210520 | 81 | 279 | 3.5 | 12.2 | 0.00 | 0.00 | 0.00 | 20 | 1016.0 |
| 20260902210019 | 81 | 279 | 3.5 | 13.9 | 0.00 | 0.00 | 0.00 | 18 | 1016.1 |
| 20260902205519 | 81 | 260 | 1.7 | 7.8 | 0.00 | 0.00 | 0.00 | 18 | 1016.3 |
| 20260902205019 | 81 | 311 | 1.7 | 4.3 | 0.00 | 0.00 | 0.00 | 22 | 1016.2 |
| 20260902204519 | 80 | 210 | 2.6 | 7.0 | 0.00 | 0.00 | 0.00 | 22 | 1016.1 |
| 20260902204019 | 80 | 213 | 2.6 | 7.0 | 0.00 | 0.00 | 0.00 | 21 | 1016.1 |
| 20260902203519 | 80 | 237 | 2.6 | 9.6 | 0.00 | 0.00 | 0.00 | 22 | 1016.1 |
| 20260902203019 | 80 | 281 | 1.7 | 7.0 | 0.00 | 0.00 | 0.00 | 21 | 1016.2 |
| 20260902202519 | 80 | 274 | 1.7 | 6.1 | 0.00 | 0.00 | 0.00 | 24 | 1016.4 |
| 20260902202019 | 80 | 281 | 1.7 | 7.0 | 0.00 | 0.00 | 0.00 | 26 | 1016.2 |
| 20260902201519 | 80 | 300 | 1.7 | 7.0 | 0.00 | 0.00 | 0.00 | 25 | 1016.5 |
| 20260902201019 | 80 | 250 | 2.6 | 5.2 | 0.00 | 0.00 | 0.00 | 25 | 1016.1 |
| 20260902200519 | 80 | 220 | 3.5 | 8.7 | 0.00 | 0.00 | 0.00 | 26 | 1016.2 |
| 20260902200019 | 80 | 273 | 3.5 | 9.6 | 0.00 | 0.00 | 0.00 | 25 | 1016.5 |
| 20260902195519 | 80 | 271 | 3.5 | 8.7 | 0.00 | 0.00 | 0.00 | 26 | 1016.3 |
| 20260902195020 | 80 | 279 | 2.6 | 11.3 | 0.00 | 0.00 | 0.00 | 25 | 1016.5 |
| 20260902194519 | 80 | 277 | 2.6 | 11.3 | 0.00 | 0.00 | 0.00 | 25 | 1016.4 |
| 20260902194020 | 80 | 183 | 2.6 | 6.1 | 0.00 | 0.00 | 0.00 | 27 | 1016.5 |
| 20260902193520 | 80 | 204 | 2.6 | 7.8 | 0.00 | 0.00 | 0.00 | 27 | 1016.4 |
| 20260902193020 | 80 | 237 | 1.7 | 5.2 | 0.00 | 0.00 | 0.00 | 27 | 1016.6 |
| 20260902192520 | 79 | 246 | 2.6 | 7.0 | 0.00 | 0.00 | 0.00 | 27 | 1016.6 |
| 20260902192020 | 79 | 234 | 2.6 | 7.0 | 0.00 | 0.00 | 0.00 | 26 | 1016.4 |
| 20260902191520 | 79 | 182 | 1.7 | 6.1 | 0.00 | 0.00 | 0.00 | 26 | 1016.5 |
| 20260902191020 | 79 | 247 | 1.7 | 7.8 | 0.00 | 0.00 | 0.00 | 27 | 1016.8 |
| 20260902190520 | 79 | 276 | 1.7 | 13.9 | 0.00 | 0.00 | 0.00 | 27 | 1016.7 |
| 20260902190020 | 78 | 259 | 1.7 | 5.2 | 0.00 | 0.00 | 0.00 | 30 | 1017.0 |
| 20260902185520 | 78 | 258 | 2.6 | 8.7 | 0.00 | 0.00 | 0.00 | 29 | 1016.9 |
| 20260902185020 | 78 | 246 | 2.6 | 10.4 | 0.00 | 0.00 | 0.00 | 29 | 1017.0 |
| 20260902184520 | 78 | 263 | 2.6 | 9.6 | 0.00 | 0.00 | 0.00 | 29 | 1017.0 |
| 20260902184020 | 78 | 177 | 1.7 | 5.2 | 0.00 | 0.00 | 0.00 | 30 | 1017.0 |
| 20260902183520 | 78 | 269 | 1.7 | 7.8 | 0.00 | 0.00 | 0.00 | 30 | 1017.1 |
| 20260902183020 | 77 | 275 | 2.6 | 7.8 | 0.00 | 0.00 | 0.00 | 30 | 1017.2 |
| 20260902182520 | 77 | 279 | 3.5 | 9.6 | 0.00 | 0.00 | 0.00 | 31 | 1017.4 |
| 20260902182020 | 77 | 273 | 3.5 | 14.8 | 0.00 | 0.00 | 0.00 | 30 | 1017.4 |
| 20260902181520 | 77 | 236 | 2.6 | 6.1 | 0.00 | 0.00 | 0.00 | 31 | 1017.4 |
| 20260902181020 | 77 | 239 | 2.6 | 6.1 | 0.00 | 0.00 | 0.00 | 32 | 1017.3 |
| 20260902180520 | 76 | 217 | 3.5 | 11.3 | 0.00 | 0.00 | 0.00 | 31 | 1017.5 |
| 20260902180020 | 76 | 217 | 2.6 | 10.4 | 0.00 | 0.00 | 0.00 | 31 | 1017.5 |
| 20260902175520 | 76 | 228 | 2.6 | 8.7 | 0.00 | 0.00 | 0.00 | 32 | 1017.7 |
| 20260902175020 | 76 | 254 | 2.6 | 11.3 | 0.00 | 0.00 | 0.00 | 32 | 1017.8 |
| 20260902174520 | 76 | 254 | 2.6 | 11.3 | 0.00 | 0.00 | 0.00 | 32 | 1017.7 |
| 20260902174020 | 76 | 262 | 2.6 | 6.1 | 0.00 | 0.00 | 0.00 | 34 | 1017.6 |
| 20260902173520 | 76 | 230 | 1.7 | 7.0 | 0.00 | 0.00 | 0.00 | 35 | 1017.9 |
| 20260902173020 | 76 | 193 | 2.6 | 8.7 | 0.00 | 0.00 | 0.00 | 36 | 1017.8 |
| 20260902172520 | 75 | 178 | 3.5 | 10.4 | 0.00 | 0.00 | 0.00 | 36 | 1017.8 |
| 20260902172020 | 75 | 262 | 3.5 | 10.4 | 0.00 | 0.00 | 0.00 | 37 | 1018.0 |
| 20260902171520 | 75 | 263 | 2.6 | 7.0 | 0.00 | 0.00 | 0.00 | 35 | 1018.1 |
| 20260902171020 | 75 | 236 | 2.6 | 12.2 | 0.00 | 0.00 | 0.00 | 36 | 1018.0 |
| 20260902170520 | 75 | 272 | 2.6 | 8.7 | 0.00 | 0.00 | 0.00 | 37 | 1018.0 |
| 20260902170020 | 74 | 250 | 2.6 | 12.2 | 0.00 | 0.00 | 0.00 | 36 | 1018.2 |
| 20260902165520 | 75 | 257 | 2.6 | 7.8 | 0.00 | 0.00 | 0.00 | 34 | 1018.2 |
| 20260902165020 | 75 | 252 | 2.6 | 7.0 | 0.00 | 0.00 | 0.00 | 37 | 1018.1 |
| 20260902164520 | 75 | 269 | 2.6 | 7.8 | 0.00 | 0.00 | 0.00 | 35 | 1018.1 |
| 20260902164020 | 75 | 271 | 2.6 | 12.2 | 0.00 | 0.00 | 0.00 | 36 | 1018.2 |
| 20260902163520 | 74 | 246 | 3.5 | 8.7 | 0.00 | 0.00 | 0.00 | 37 | 1018.0 |
| 20260902163020 | 74 | 262 | 3.5 | 13.0 | 0.00 | 0.00 | 0.00 | 37 | 1018.0 |
| 20260902162520 | 74 | 258 | 2.6 | 7.8 | 0.00 | 0.00 | 0.00 | 37 | 1018.2 |
| 20260902162020 | 73 | 212 | 1.7 | 7.8 | 0.00 | 0.00 | 0.00 | 38 | 1018.1 |
| 20260902161520 | 73 | 244 | 1.7 | 4.3 | 0.00 | 0.00 | 0.00 | 39 | 1018.0 |
| 20260902161020 | 73 | 250 | 0.9 | 6.1 | 0.00 | 0.00 | 0.00 | 40 | 1018.0 |
| 20260902160520 | 73 | 232 | 0.9 | 4.3 | 0.00 | 0.00 | 0.00 | 39 | 1018.0 |
| 20260902160020 | 72 | 229 | 0.9 | 6.1 | 0.00 | 0.00 | 0.00 | 41 | 1018.1 |
| 20260902155520 | 72 | 271 | 0.0 | 2.6 | 0.00 | 0.00 | 0.00 | 44 | 1017.9 |
| 20260902155020 | 72 | 271 | 0.0 | 3.5 | 0.00 | 0.00 | 0.00 | 45 | 1017.9 |
| 20260902154520 | 71 | 271 | 0.0 | 1.7 | 0.00 | 0.00 | 0.00 | 45 | 1018.0 |
| 20260902154020 | 71 | 271 | 0.9 | 4.3 | 0.00 | 0.00 | 0.00 | 44 | 1018.0 |
| 20260902153520 | 72 | 274 | 0.9 | 5.2 | 0.00 | 0.00 | 0.00 | 42 | 1018.2 |
| 20260902153020 | 72 | 276 | 0.9 | 3.5 | 0.00 | 0.00 | 0.00 | 42 | 1018.1 |
| 20260902152520 | 72 | 275 | 0.9 | 7.8 | 0.00 | 0.00 | 0.00 | 41 | 1018.2 |
| 20260902152020 | 71 | 229 | 0.9 | 7.0 | 0.00 | 0.00 | 0.00 | 42 | 1018.2 |
| 20260902151520 | 71 | 236 | 0.9 | 3.5 | 0.00 | 0.00 | 0.00 | 42 | 1018.2 |
| 20260902151020 | 71 | 231 | 1.7 | 4.3 | 0.00 | 0.00 | 0.00 | 41 | 1018.2 |
| 20260902150520 | 70 | 236 | 0.9 | 7.0 | 0.00 | 0.00 | 0.00 | 43 | 1018.2 |